When you browse on this site, cookies collect data to enhance your experience and personalize the content and advertising you see.
Visit our Privacy Policy to learn more. By continuing to use the site, you agree to this use of cookies and data.
  • en Suisse
  • Liste des pays
  • À 7 jours
  • Température de l'eau
  • Carte satellitaire
  • Carte météo
  • Widgets météo
  • user-avatar
    Se connecter

    Météo par heure à Kaprun

    Ce jour, 25 Mai, Samedi

    Heure Température Précipitation Vent Pression Humidité
    00:00 +3°C° 0 mm 1 m/s 594 mmHg 88%
    01:00 +3°C° 0 mm 1 m/s 594 mmHg 87%
    02:00 +3°C° 0 mm 1 m/s 594 mmHg 87%
    03:00 +3°C° 0 mm 1 m/s 594 mmHg 86%
    04:00 +3°C° 0 mm 1 m/s 594 mmHg 85%
    05:00 +3°C° 0 mm 0 m/s 595 mmHg 80%
    06:00 +5°C° 0 mm 0 m/s 596 mmHg 74%
    07:00 +7°C° 0 mm 0 m/s 597 mmHg 68%
    08:00 +8°C° 0.2 mm 0 m/s 597 mmHg 66%
    09:00 +10°C° 0.2 mm 1 m/s 598 mmHg 63%
    10:00 +11°C° 0.2 mm 1 m/s 598 mmHg 61%
    11:00 +10°C° 1.3 mm 1 m/s 598 mmHg 68%
    12:00 +10°C° 1.3 mm 1 m/s 597 mmHg 75%
    13:00 +9°C° 1.3 mm 1 m/s 597 mmHg 82%
    14:00 +8°C° 2.2 mm 1 m/s 596 mmHg 85%
    15:00 +8°C° 2.2 mm 1 m/s 596 mmHg 89%
    16:00 +6°C° 2.2 mm 0 m/s 596 mmHg 93%
    17:00 +6°C° 1.3 mm 0 m/s 596 mmHg 95%
    18:00 +5°C° 1.3 mm 0 m/s 596 mmHg 96%
    19:00 +5°C° 1.3 mm 0 m/s 596 mmHg 97%
    20:00 +4°C° 1.5 mm 0 m/s 596 mmHg 97%
    21:00 +4°C° 1.5 mm 0 m/s 596 mmHg 97%
    22:00 +4°C° 1.5 mm 0 m/s 596 mmHg 97%
    23:00 +4°C° 1.6 mm 0 m/s 596 mmHg 97%

    Demain, 26 Mai, Dimanche

    Heure Température Précipitation Vent Pression Humidité
    00:00 +4°C° 1.6 mm 1 m/s 596 mmHg 96%
    01:00 +4°C° 1.6 mm 1 m/s 596 mmHg 96%
    02:00 +3°C° 0.4 mm 0 m/s 596 mmHg 96%
    03:00 +3°C° 0.4 mm 0 m/s 595 mmHg 96%
    04:00 +3°C° 0.4 mm 0 m/s 595 mmHg 96%
    05:00 +3°C° 0.1 mm 0 m/s 596 mmHg 95%
    06:00 +4°C° 0.1 mm 0 m/s 596 mmHg 95%
    07:00 +5°C° 0.1 mm 0 m/s 596 mmHg 94%
    08:00 +6°C° 0.1 mm 0 m/s 597 mmHg 89%
    09:00 +8°C° 0.1 mm 1 m/s 597 mmHg 84%
    10:00 +9°C° 0.1 mm 1 m/s 598 mmHg 80%
    11:00 +10°C° 0.3 mm 1 m/s 598 mmHg 77%
    12:00 +10°C° 0.3 mm 1 m/s 598 mmHg 75%
    13:00 +11°C° 0.3 mm 1 m/s 598 mmHg 72%
    14:00 +11°C° 0.6 mm 1 m/s 598 mmHg 76%
    15:00 +10°C° 0.6 mm 1 m/s 597 mmHg 80%
    16:00 +10°C° 0.6 mm 1 m/s 597 mmHg 85%
    17:00 +9°C° 0.8 mm 1 m/s 597 mmHg 88%
    18:00 +7°C° 0.8 mm 0 m/s 596 mmHg 91%
    19:00 +7°C° 0.8 mm 0 m/s 596 mmHg 95%
    20:00 +6°C° 0.6 mm 0 m/s 596 mmHg 95%
    21:00 +6°C° 0.6 mm 0 m/s 596 mmHg 96%
    22:00 +5°C° 0.6 mm 0 m/s 596 mmHg 96%
    23:00 +5°C° 0.3 mm 0 m/s 596 mmHg 96%

    Après-demain, 27 Mai, Lundi

    Heure Température Précipitation Vent Pression Humidité
    00:00 +5°C° 0.3 mm 0 m/s 596 mmHg 96%
    01:00 +5°C° 0.3 mm 0 m/s 595 mmHg 96%
    02:00 +4°C° 0.1 mm 0 m/s 595 mmHg 96%
    03:00 +4°C° 0.1 mm 0 m/s 595 mmHg 96%
    04:00 +4°C° 0.1 mm 0 m/s 594 mmHg 96%
    05:00 +5°C° 0.1 mm 0 m/s 595 mmHg 95%
    06:00 +6°C° 0.1 mm 0 m/s 595 mmHg 93%
    07:00 +7°C° 0.1 mm 0 m/s 596 mmHg 92%
    08:00 +8°C° 0.1 mm 1 m/s 596 mmHg 90%
    09:00 +9°C° 0.1 mm 1 m/s 596 mmHg 88%
    10:00 +9°C° 0.1 mm 1 m/s 596 mmHg 86%
    11:00 +10°C° 0.2 mm 1 m/s 596 mmHg 83%
    12:00 +11°C° 0.2 mm 1 m/s 596 mmHg 80%
    13:00 +11°C° 0.2 mm 1 m/s 596 mmHg 77%
    14:00 +11°C° 0.6 mm 1 m/s 595 mmHg 81%
    15:00 +11°C° 0.6 mm 1 m/s 595 mmHg 84%
    16:00 +9°C° 0.6 mm 2 m/s 594 mmHg 87%
    17:00 +9°C° 1.4 mm 1 m/s 594 mmHg 91%
    18:00 +9°C° 1.4 mm 1 m/s 594 mmHg 94%
    19:00 +8°C° 1.4 mm 1 m/s 593 mmHg 98%
    20:00 +8°C° 2.7 mm 1 m/s 593 mmHg 98%
    21:00 +7°C° 2.7 mm 1 m/s 593 mmHg 98%
    22:00 +7°C° 2.7 mm 1 m/s 593 mmHg 98%
    23:00 +6°C° 4.7 mm 1 m/s 592 mmHg 98%

    28 Mai, Mardi

    Heure Température Précipitation Vent Pression Humidité
    00:00 +6°C° 4.7 mm 1 m/s 592 mmHg 98%
    01:00 +5°C° 4.7 mm 0 m/s 591 mmHg 98%
    02:00 +5°C° 4.2 mm 0 m/s 591 mmHg 98%
    03:00 +5°C° 4.2 mm 1 m/s 591 mmHg 98%
    04:00 +5°C° 4.2 mm 1 m/s 590 mmHg 98%
    05:00 +5°C° 2.7 mm 1 m/s 590 mmHg 98%
    06:00 +5°C° 2.7 mm 1 m/s 590 mmHg 98%
    07:00 +5°C° 2.7 mm 1 m/s 590 mmHg 98%
    08:00 +5°C° 2.3 mm 1 m/s 590 mmHg 98%
    09:00 +5°C° 2.3 mm 1 m/s 590 mmHg 98%
    10:00 +5°C° 2.3 mm 1 m/s 590 mmHg 97%
    11:00 +4°C° 1.7 mm 2 m/s 590 mmHg 97%
    12:00 +4°C° 1.7 mm 2 m/s 590 mmHg 97%
    13:00 +3°C° 1.7 mm 2 m/s 590 mmHg 97%
    14:00 +3°C° 0.7 mm 2 m/s 590 mmHg 97%
    15:00 +3°C° 0.7 mm 2 m/s 590 mmHg 97%
    16:00 +3°C° 0.7 mm 2 m/s 591 mmHg 96%
    17:00 +3°C° 0.6 mm 2 m/s 591 mmHg 97%
    18:00 +3°C° 0.6 mm 2 m/s 591 mmHg 97%
    19:00 +2°C° 0.6 mm 2 m/s 591 mmHg 98%
    20:00 +2°C° 1.2 mm 2 m/s 591 mmHg 98%
    21:00 +2°C° 1.2 mm 2 m/s 592 mmHg 98%
    22:00 +2°C° 1.2 mm 2 m/s 592 mmHg 99%
    23:00 +2°C° 1.4 mm 2 m/s 592 mmHg 99%

    29 Mai, Mercredi

    Heure Température Précipitation Vent Pression Humidité
    00:00 +2°C° 1.4 mm 2 m/s 592 mmHg 99%
    01:00 +3°C° 1.4 mm 1 m/s 592 mmHg 99%
    02:00 +1°C° 1.8 mm 2 m/s 592 mmHg 99%
    03:00 +1°C° 1.8 mm 2 m/s 592 mmHg 99%
    04:00 +1°C° 1.8 mm 2 m/s 592 mmHg 99%
    05:00 +1°C° 1.9 mm 2 m/s 593 mmHg 99%
    06:00 +1°C° 1.9 mm 2 m/s 593 mmHg 98%
    07:00 +1°C° 1.9 mm 2 m/s 593 mmHg 98%
    08:00 +1°C° 0.7 mm 2 m/s 594 mmHg 98%
    09:00 +2°C° 0.7 mm 2 m/s 594 mmHg 97%
    10:00 +2°C° 0.7 mm 2 m/s 595 mmHg 96%
    11:00 +2°C° 0.3 mm 2 m/s 595 mmHg 95%
    12:00 +3°C° 0.3 mm 2 m/s 596 mmHg 94%
    13:00 +3°C° 0.3 mm 2 m/s 596 mmHg 93%
    14:00 +3°C° 0.4 mm 2 m/s 596 mmHg 94%
    15:00 +3°C° 0.4 mm 2 m/s 597 mmHg 95%
    16:00 +2°C° 0.4 mm 2 m/s 597 mmHg 96%
    17:00 +2°C° 0.5 mm 2 m/s 597 mmHg 97%
    18:00 +2°C° 0.5 mm 2 m/s 597 mmHg 97%
    19:00 +1°C° 0.5 mm 2 m/s 597 mmHg 98%
    20:00 +1°C° 0.2 mm 2 m/s 598 mmHg 98%
    21:00 +1°C° 0.2 mm 2 m/s 598 mmHg 98%
    22:00 -1°C° 0.2 mm 2 m/s 598 mmHg 98%
    23:00 -1°C° 0.1 mm 2 m/s 598 mmHg 98%

    30 Mai, Jeudi

    Heure Température Précipitation Vent Pression Humidité
    00:00 +1°C° 0.1 mm 1 m/s 598 mmHg 98%
    01:00 +1°C° 0.1 mm 1 m/s 598 mmHg 98%
    02:00 +1°C° 0.1 mm 1 m/s 598 mmHg 97%
    03:00 0°C° 0.1 mm 1 m/s 598 mmHg 97%
    04:00 0°C° 0.1 mm 1 m/s 598 mmHg 97%
    05:00 +1°C° 0.1 mm 1 m/s 599 mmHg 95%
    06:00 +1°C° 0.1 mm 2 m/s 599 mmHg 94%
    07:00 +1°C° 0.1 mm 2 m/s 600 mmHg 92%
    08:00 +2°C° 0.2 mm 2 m/s 600 mmHg 88%
    09:00 +3°C° 0.2 mm 2 m/s 600 mmHg 85%
    10:00 +4°C° 0.2 mm 2 m/s 600 mmHg 81%
    11:00 +4°C° 0.3 mm 2 m/s 600 mmHg 80%
    12:00 +5°C° 0.3 mm 2 m/s 600 mmHg 78%
    13:00 +4°C° 0.3 mm 3 m/s 600 mmHg 76%
    14:00 +4°C° 0.3 mm 3 m/s 600 mmHg 77%
    15:00 +4°C° 0.3 mm 3 m/s 600 mmHg 78%
    16:00 +4°C° 0.3 mm 3 m/s 600 mmHg 79%
    17:00 +3°C° 0.2 mm 3 m/s 600 mmHg 83%
    18:00 +4°C° 0.2 mm 2 m/s 600 mmHg 87%
    19:00 +3°C° 0.2 mm 2 m/s 600 mmHg 91%
    20:00 +2°C° 0 mm 2 m/s 600 mmHg 93%
    21:00 +1°C° 0 mm 2 m/s 599 mmHg 95%
    22:00 -1°C° 0 mm 2 m/s 599 mmHg 97%
    23:00 +1°C° 0 mm 1 m/s 599 mmHg 96%
    Voir plus